[[{"header":{"parameterUnit":"m.s-1","parameterCategory":1,"la1":30.2991,"la2":30.254,"lo1":-89.0895,"lo2":-89.0444,"dy":0.0017,"dx":0.0017,"nx":28,"ny":28,"refTime":"2024-12-11T09:00:00:Z","depth":0,"parameterNumber":2,"parameterNumberName":"U-component_of_WINDS"},"data":[0,0,0,0,0,0,0,0,0,0,0,0,0,0,0,0,0,0,0,0,0,0,0,0,0,0,0,0,0,0,0,0,0,0,0,0,0,0,0,0,0,0,0,0,0,0,0,0,0,0,0,0,0,0,0,0,0,0,3.6389,3.639,0,3.6441,3.6441,3.6442,3.6421,3.642,3.6419,3.6417,3.647,3.6472,3.6475,0,0,0,0,0,0,0,0,0,0,0,0,0,3.6274,3.6276,3.6389,3.639,3.6391,3.6441,3.6441,3.6442,3.6421,3.642,3.6418,3.6417,3.6469,3.6472,3.6475,0,0,0,0,0,0,0,0,0,0,0,0,0,3.6324,3.6277,3.6389,3.6386,3.6386,3.6441,3.6442,3.6442,3.6422,3.642,3.6418,3.6416,3.6468,3.6472,3.6475,3.6535,0,0,3.6487,3.6489,0,0,0,0,0,0,0,0,3.6321,3.6329,3.6386,3.6386,3.6387,3.6423,3.642,3.6474,3.6422,3.6408,3.6417,3.6415,3.6456,3.646,3.6474,3.6538,3.654,3.6487,3.649,3.6491,3.6492,0,0,0,0,0,0,0,3.6318,3.6326,3.641,3.6387,3.6387,3.6383,3.6388,3.643,3.6441,3.6409,3.6408,3.6414,3.6455,3.647,3.6475,3.6541,3.6487,3.6491,3.6493,3.6494,3.6659,3.6661,0,0,0,0,0,0,3.6314,3.6323,3.6408,3.6411,3.6349,3.6386,3.6392,3.6413,3.6441,3.6444,3.6416,3.6413,3.6465,3.6471,3.6477,3.655,3.6491,3.6495,3.6497,3.6657,3.6659,3.6662,0,0,0,0,0,0,3.6312,3.6322,3.6406,3.6367,3.6377,3.639,3.6414,3.6415,3.643,3.6446,3.6448,3.6429,3.6464,3.6471,3.6522,3.6552,3.6497,3.65,3.6654,3.6658,3.666,3.6696,0,0,0,0,0,0,3.6309,3.6321,3.6344,3.6368,3.6379,3.645,3.6416,3.6417,3.6436,3.6433,3.6459,3.6461,3.6463,3.6516,3.6525,3.6556,3.6503,3.6652,3.6656,3.6659,3.6693,3.67,3.6707,0,0,0,0,0,3.6305,3.6351,3.6345,3.6355,3.6408,3.6451,3.6458,3.6459,3.6439,3.6462,3.6473,3.646,3.6547,3.6521,3.6532,3.6564,3.665,3.6655,3.6659,3.6689,3.6699,3.6707,0,0,0,0,0,0,3.633,3.6354,3.6348,3.6403,3.6426,3.6448,3.6477,3.6469,3.6497,3.6493,3.6493,3.6499,3.6551,3.6562,3.6533,3.6624,3.6595,3.6602,3.6615,3.6624,3.6631,3.6627,3.6506,0,0,0,0,0,3.6342,3.6375,3.6395,3.6442,3.6454,3.6464,3.6482,3.6482,3.6504,3.6513,3.6528,3.655,3.6583,3.6604,3.6635,3.6694,3.67,3.6722,3.6729,3.6735,3.6741,3.6775,3.6785,3.6677,3.6677,3.6677,0,0,3.6367,3.6385,3.6406,3.6448,3.6465,3.65,3.6471,3.6509,3.6535,3.6519,3.6567,3.6579,3.6604,3.666,3.6685,3.6671,3.6772,3.6741,3.6745,3.6748,3.6781,3.6791,3.68,3.668,3.668,3.6679,0,0,3.6431,3.6448,3.649,3.6508,3.6534,3.6541,3.6551,3.6575,3.6582,3.6631,3.662,3.6651,3.6707,3.6726,3.6743,3.6817,3.6807,3.6827,3.6864,3.6897,3.6906,3.6913,3.6941,3.695,3.6833,3.6833,3.6833,0,3.6459,3.6511,3.6512,3.6551,3.6571,3.6559,3.6602,3.6619,3.6654,3.6668,3.6652,3.6723,3.6739,3.68,3.6818,3.6832,3.6844,3.6823,3.6905,3.6912,3.6919,3.6945,3.6955,3.6835,3.6835,3.6835,3.6834,0,3.6545,3.6581,3.6612,3.6647,3.667,3.6711,3.6718,3.6742,3.674,3.6748,3.6799,3.6818,3.6853,3.6868,3.6865,3.6929,3.6919,3.6904,3.6875,3.6932,3.6956,3.6966,3.6838,3.6838,3.6837,3.6836,0,0,3.6624,3.6661,3.6672,3.6689,3.6718,3.6747,3.6788,3.6823,3.6843,3.6868,3.6903,3.6952,3.6938,3.6958,3.6958,3.6987,3.7045,3.6968,3.6969,3.6982,3.7118,3.7129,3.714,3.7039,3.7041,3.7043,3.7116,0,3.6691,3.6763,3.6766,3.6832,3.6866,3.6856,3.6892,3.6915,3.6924,3.6955,3.6966,3.7,3.698,3.6992,3.702,3.7032,3.7073,3.7027,3.7072,3.7074,3.7066,3.7153,3.7165,3.7232,3.7125,3.7127,3.7128,0,3.6778,3.6807,3.6876,3.6902,3.6917,3.6949,3.6982,3.7012,3.7037,3.7042,3.7065,3.7062,3.7105,3.7075,3.7134,3.7103,3.7122,3.7131,3.7134,3.7138,3.7104,3.716,3.7254,3.7264,3.7143,3.7142,3.714,0,3.683,3.6886,3.6935,3.695,3.6981,3.7005,3.7019,3.7043,3.7064,3.7093,3.7108,3.7141,3.716,3.7186,3.7192,3.717,3.7253,3.7223,3.7258,3.7258,3.7276,3.7274,3.7375,3.7288,3.7288,3.7287,3.7287,0,3.6904,3.6947,3.696,3.699,3.7038,3.7042,3.709,3.7102,3.7124,3.7157,3.7151,3.7182,3.7188,3.7221,3.7226,3.7276,3.7284,3.729,3.729,3.729,3.729,3.7302,3.7298,3.729,3.729,3.7289,3.7289,0,3.697,3.698,3.7033,3.706,3.7067,3.7102,3.7124,3.7154,3.7163,3.7205,3.7216,3.7231,3.7269,3.7278,3.7324,3.7327,3.7386,3.7382,3.7377,3.7377,3.7412,3.7409,3.7524,3.754,3.7442,3.7443,3.7444,0,3.7017,3.705,3.708,3.7102,3.7117,3.7153,3.7175,3.7181,3.7204,3.7237,3.7263,3.7301,3.7331,3.7393,3.7409,3.7444,3.7441,3.7479,3.7446,3.7445,3.7442,3.744,3.7444,3.7485,3.7486,3.7487,3.7488,0,3.7099,3.7102,3.7135,3.7169,3.7196,3.7224,3.725,3.7268,3.7278,3.7305,3.7344,3.7368,3.7416,3.7454,3.749,3.7505,3.7498,3.7498,3.7508,3.7508,3.7504,3.7508,3.7394,3.7495,3.7495,3.7494,3.7494,3.7493,3.7157,3.7186,3.7212,3.7249,3.727,3.7295,3.7324,3.7338,3.7371,3.7411,3.7412,3.7456,3.7482,3.753,3.7547,3.7582,3.757,3.7585,3.7588,3.7592,3.7595,3.7499,3.7588,3.7588,3.7588,3.7588,3.7588,0,3.7239,3.7256,3.7289,3.7327,3.7356,3.7348,3.7377,3.7402,3.7441,3.7466,3.7497,3.7543,3.7581,3.76,3.7637,3.7661,3.7659,3.7671,3.7669,3.7673,3.7603,3.7591,3.7672,3.7672,3.7672,3.7672,3.7672,3.7672,3.7285,3.7334,3.7342,3.7402,3.7419,3.7462,3.7479,3.7503,3.7523,3.7576,3.7607,3.7619,3.7643,3.7682,3.7716,3.7721,3.7735,3.7748,3.7752,3.7686,3.7678,3.7669,3.7658,3.7751,3.7751,3.7818,3.7819,3.7819]},{"header":{"parameterUnit":"m.s-1","parameterCategory":1,"la1":30.2991,"la2":30.254,"lo1":-89.0895,"lo2":-89.0444,"dy":0.0017,"dx":0.0017,"nx":28,"ny":28,"refTime":"2024-12-11T09:00:00:Z","depth":0,"parameterNumber":3,"parameterNumberName":"V-component_of_WINDS"},"data":[0,0,0,0,0,0,0,0,0,0,0,0,0,0,0,0,0,0,0,0,0,0,0,0,0,0,0,0,0,0,0,0,0,0,0,0,0,0,0,0,0,0,0,0,0,0,0,0,0,0,0,0,0,0,0,0,0,0,-5.7308,-5.7309,0,-5.7431,-5.7433,-5.7434,-5.7408,-5.7406,-5.7404,-5.7402,-5.7527,-5.7532,-5.7538,0,0,0,0,0,0,0,0,0,0,0,0,0,-5.705,-5.7055,-5.7308,-5.7309,-5.7311,-5.7431,-5.7433,-5.7434,-5.7409,-5.7406,-5.7403,-5.7401,-5.7525,-5.7532,-5.7538,0,0,0,0,0,0,0,0,0,0,0,0,0,-5.7167,-5.7057,-5.7307,-5.7313,-5.7314,-5.7431,-5.7433,-5.7435,-5.7409,-5.7406,-5.7403,-5.7399,-5.7523,-5.7531,-5.7539,-5.7658,0,0,-5.7564,-5.7568,0,0,0,0,0,0,0,0,-5.716,-5.7176,-5.731,-5.7312,-5.7315,-5.7401,-5.7388,-5.751,-5.741,-5.7373,-5.7402,-5.7398,-5.7488,-5.7499,-5.7529,-5.7663,-5.7669,-5.7565,-5.757,-5.7573,-5.7575,0,0,0,0,0,0,0,-5.7152,-5.7171,-5.7357,-5.7312,-5.7315,-5.7309,-5.7322,-5.7411,-5.7448,-5.7376,-5.7375,-5.739,-5.7488,-5.7521,-5.7532,-5.7671,-5.7564,-5.7572,-5.7577,-5.758,-5.7911,-5.7914,0,0,0,0,0,0,-5.7142,-5.7164,-5.7353,-5.736,-5.7227,-5.7316,-5.7331,-5.7377,-5.7447,-5.7454,-5.7392,-5.7388,-5.7509,-5.7522,-5.7536,-5.7681,-5.7573,-5.7581,-5.7585,-5.7907,-5.7911,-5.7916,0,0,0,0,0,0,-5.7137,-5.7159,-5.7348,-5.7262,-5.7285,-5.7324,-5.7376,-5.7381,-5.7414,-5.7459,-5.7466,-5.742,-5.7507,-5.7525,-5.7628,-5.7685,-5.7584,-5.7592,-5.7902,-5.7908,-5.7914,-5.7971,0,0,0,0,0,0,-5.7129,-5.7157,-5.7203,-5.7263,-5.729,-5.7438,-5.738,-5.7386,-5.7428,-5.7424,-5.7486,-5.7493,-5.7506,-5.7616,-5.7636,-5.7695,-5.7598,-5.7897,-5.7905,-5.7912,-5.7964,-5.7978,-5.799,0,0,0,0,0,-5.712,-5.7213,-5.7205,-5.7228,-5.7348,-5.7441,-5.7456,-5.7469,-5.7433,-5.7479,-5.7509,-5.7491,-5.7676,-5.7627,-5.7649,-5.7711,-5.7894,-5.7903,-5.7911,-5.7959,-5.7976,-5.799,0,0,0,0,0,0,-5.7158,-5.7221,-5.7213,-5.7328,-5.738,-5.7437,-5.7495,-5.7486,-5.7548,-5.7541,-5.7554,-5.7568,-5.7674,-5.7702,-5.7647,-5.783,-5.778,-5.7793,-5.7808,-5.7824,-5.7837,-5.7828,-5.7605,0,0,0,0,0,-5.718,-5.725,-5.7302,-5.7399,-5.7425,-5.7456,-5.7497,-5.7502,-5.7556,-5.7577,-5.7614,-5.7666,-5.7736,-5.7782,-5.7848,-5.7968,-5.7982,-5.8022,-5.8035,-5.8045,-5.8057,-5.8124,-5.8143,-5.7944,-5.7944,-5.7944,0,0,-5.7225,-5.7269,-5.7312,-5.7407,-5.7448,-5.7521,-5.7474,-5.7553,-5.7608,-5.7589,-5.7689,-5.7718,-5.7778,-5.7891,-5.7942,-5.7918,-5.8115,-5.8056,-5.8064,-5.8071,-5.8135,-5.8154,-5.8171,-5.795,-5.7949,-5.7948,0,0,-5.7346,-5.7385,-5.7471,-5.7513,-5.7575,-5.7595,-5.7616,-5.7675,-5.7694,-5.7795,-5.7783,-5.7848,-5.7968,-5.8011,-5.8049,-5.8188,-5.8175,-5.8209,-5.8277,-5.8342,-5.8358,-5.8372,-5.8423,-5.8441,-5.8221,-5.8221,-5.8221,0,-5.7395,-5.7505,-5.7516,-5.7598,-5.764,-5.7628,-5.7715,-5.7755,-5.7835,-5.7865,-5.7837,-5.7988,-5.8027,-5.8151,-5.8185,-5.8215,-5.824,-5.8202,-5.8355,-5.8369,-5.8382,-5.8431,-5.845,-5.8225,-5.8224,-5.8224,-5.8224,0,-5.7562,-5.7639,-5.7701,-5.778,-5.783,-5.7914,-5.7939,-5.7987,-5.7989,-5.8012,-5.8116,-5.8163,-5.8239,-5.8269,-5.827,-5.8394,-5.8377,-5.8352,-5.8301,-5.8405,-5.8451,-5.847,-5.823,-5.8229,-5.8228,-5.8227,0,0,-5.771,-5.7796,-5.7818,-5.7855,-5.7923,-5.7983,-5.8067,-5.8142,-5.8185,-5.8241,-5.8312,-5.8414,-5.8392,-5.8435,-5.8441,-5.8499,-5.8608,-5.8467,-5.8469,-5.8493,-5.8749,-5.8768,-5.8789,-5.86,-5.8604,-5.8606,-5.8744,0,-5.7838,-5.7986,-5.8,-5.8133,-5.8205,-5.8194,-5.8267,-5.8317,-5.8342,-5.8406,-5.8433,-5.8506,-5.847,-5.8496,-5.8553,-5.8583,-5.866,-5.8573,-5.8667,-5.867,-5.8654,-5.8813,-5.8834,-5.8961,-5.8762,-5.8765,-5.8767,0,-5.8007,-5.8069,-5.821,-5.827,-5.8301,-5.8366,-5.8438,-5.8499,-5.8556,-5.857,-5.8619,-5.8618,-5.8705,-5.8651,-5.8771,-5.8712,-5.8751,-5.8772,-5.8777,-5.8787,-5.8726,-5.8829,-5.9002,-5.9022,-5.8796,-5.8793,-5.8791,0,-5.8102,-5.8221,-5.8321,-5.8353,-5.8425,-5.8472,-5.8504,-5.8557,-5.8603,-5.8665,-5.8695,-5.8766,-5.8805,-5.8861,-5.888,-5.8838,-5.9,-5.8947,-5.9014,-5.9014,-5.9049,-5.9047,-5.9233,-5.9073,-5.9073,-5.9072,-5.9072,0,-5.8244,-5.8331,-5.8365,-5.8427,-5.8524,-5.8539,-5.8635,-5.8665,-5.8713,-5.8781,-5.8776,-5.8839,-5.886,-5.8927,-5.8942,-5.904,-5.9058,-5.9072,-5.9075,-5.9073,-5.9071,-5.9099,-5.9091,-5.9077,-5.9076,-5.9075,-5.9074,0,-5.8367,-5.8393,-5.8502,-5.8562,-5.8579,-5.8648,-5.87,-5.876,-5.8783,-5.8869,-5.889,-5.8927,-5.9006,-5.9031,-5.9125,-5.9135,-5.9251,-5.9246,-5.9232,-5.9233,-5.93,-5.9294,-5.9511,-5.9541,-5.936,-5.9362,-5.9363,0,-5.8456,-5.8523,-5.8591,-5.8636,-5.8671,-5.8743,-5.879,-5.8808,-5.8856,-5.8928,-5.8979,-5.9058,-5.9121,-5.9248,-5.9284,-5.9357,-5.9354,-5.9425,-5.9365,-5.9361,-5.9357,-5.9353,-5.936,-5.9436,-5.9438,-5.944,-5.9441,0,-5.8613,-5.8623,-5.869,-5.8764,-5.882,-5.8878,-5.8934,-5.8971,-5.8997,-5.9052,-5.9134,-5.9183,-5.9281,-5.9359,-5.9434,-5.9467,-5.9459,-5.946,-5.948,-5.9479,-5.9469,-5.9477,-5.9265,-5.9455,-5.9453,-5.9452,-5.9452,-5.9451,-5.8723,-5.8782,-5.884,-5.8916,-5.896,-5.9013,-5.9073,-5.9104,-5.9173,-5.9254,-5.9261,-5.9349,-5.9406,-5.9505,-5.9542,-5.9612,-5.9591,-5.962,-5.9627,-5.9634,-5.964,-5.9457,-5.9625,-5.9625,-5.9625,-5.9624,-5.9624,0,-5.888,-5.8917,-5.8987,-5.9066,-5.9126,-5.9114,-5.9176,-5.9227,-5.9305,-5.9359,-5.9422,-5.9516,-5.9593,-5.9635,-5.9711,-5.9759,-5.9757,-5.9779,-5.9776,-5.9784,-5.9653,-5.9629,-5.9779,-5.9779,-5.9779,-5.9779,-5.9779,-5.9778,-5.8969,-5.907,-5.9087,-5.921,-5.9247,-5.9334,-5.937,-5.942,-5.9463,-5.9569,-5.9633,-5.966,-5.9709,-5.979,-5.9859,-5.987,-5.9899,-5.9923,-5.9931,-5.9809,-5.9793,-5.9778,-5.9755,-5.9928,-5.9929,-6.0056,-6.0057,-6.0058]}]]